Location: Westminster College Observatory
(41.1194°N, 80.3291°W)
Time: 21:44:27
(UTC-04:00)

OTV 5 (USA 277) - Visible Passes

Search period start: 25 April 2018 00:00
Search period end: 05 May 2018 00:00
Orbit: 308 x 325 km, 54.5° (Epoch: 25 April)

Date Brightness Start Highest point End Pass type
(mag) Time Alt. Az. Time Alt. Az. Time Alt. Az.
28 Apr ? 22:39:52 10° N 22:40:30 12° N 22:40:30 12° N visible
29 Apr ? 22:53:33 10° NNW 22:54:14 14° NNW 22:54:14 14° NNW visible
30 Apr ? 23:07:36 10° NW 23:07:58 13° NW 23:07:58 13° NW visible
01 May ? 21:48:14 10° NNW 21:50:05 16° NNE 21:50:52 15° NE visible
02 May ? 22:02:06 10° NNW 22:04:36 33° NE 22:04:38 33° NE visible
03 May ? 22:16:15 10° NW 22:18:25 52° WNW 22:18:25 52° WNW visible
04 May ? 20:56:37 10° NNW 20:58:51 22° NNE 21:01:04 10° E visible
04 May ? 22:30:50 10° WNW 22:32:14 21° W 22:32:14 21° W visible
